, AK

(GMT )
Tin City

Weather History for PATC - January, 2013

Change the Weather History Date:

Tuesday, January 1, 2013

  Actual Average Record
Temperature  
Mean Temperature 12 °F -  
Max Temperature 16 °F 9 °F 37 °F (2005)
Min Temperature 8 °F 0 °F -27 °F (2012)
Degree Days  
Heating Degree Days 52    
Moisture  
Dew Point 12 °F    
Average Humidity 95    
Maximum Humidity 100    
Minimum Humidity 90    
Precipitation  
Precipitation 0.00 in - - ()
Sea Level Pressure  
Sea Level Pressure 29.28 in    
Wind  
Wind Speed - (North)    
Max Wind Speed -    
Max Gust Speed -    
Visibility 1 miles    
Events Snow    
Averages and records for this station are not official NWS values.
T = Trace of Precipitation, MM = Missing Value Source: NWS Daily Summary

Daily Weather History Graph

Daily Weather History Graph

Search for Another Location

Airport or City:

Trip Planner

Search our weather history database for the weather conditions in past years. The results will help you decide how hot, cold, wet, or windy it might be!

Date:

Astronomy

Jan. 01, 2013 Rise Set
Actual Time 12:28 PM AKST 4:03 PM AKST
Civil Twilight 10:59 AM AKST 5:31 PM AKST
Nautical Twilight 9:46 AM AKST 6:45 PM AKST
Astronomical Twilight 8:43 AM AKST 7:48 PM AKST
Moon 11:19 PM AKST (1/1) 12:25 PM AKST (1/1)
Length of Visible Light 6h 32m
Length of Day
3h 34m
Waning Gibbous, 82% of the Moon is Illuminated
Jan 1
Waning Gibbous
Jan 4
Last Quarter
Jan 11
New
Jan 18
First Quarter
Jan 26
Full

Hourly Weather History & Observations

Time (AKST) Temp. Dew Point Humidity Pressure Visibility Wind Dir Wind Speed Gust Speed Precip Events Conditions
12:55 AM 13.5 °F 12.6 °F 96% 29.56 in 1.0 mi North - - N/A Snow Light Snow
1:55 AM 12.9 °F 11.8 °F 95% 29.55 in 2.5 mi North - - N/A Snow Light Snow Showers
2:55 AM 12.4 °F 11.5 °F 96% 29.54 in 1.2 mi North - - N/A Snow Light Snow
3:55 AM 12.0 °F 11.1 °F 96% 29.53 in 1.0 mi North - - N/A Snow Light Snow
4:55 AM 11.3 °F 10.0 °F 95% 29.50 in 0.8 mi North - - N/A Snow Light Snow
5:55 AM 10.8 °F 9.5 °F 95% 29.49 in 1.2 mi North - - N/A Snow Light Snow
6:55 AM 10.0 °F 8.8 °F 95% 29.47 in 1.0 mi North - - N/A Snow Light Snow
7:55 AM 10.4 °F 9.1 °F 95% 29.45 in 0.8 mi North - - N/A Snow Light Snow
8:55 AM 10.2 °F 9.3 °F 96% 29.39 in 0.2 mi North - - N/A Snow Light Snow
9:55 AM 8.6 °F 6.8 °F 92% 29.39 in 0.2 mi North - - N/A Snow Heavy Snow
10:55 AM 9.1 °F 7.2 °F 92% 29.36 in 0.5 mi North - - N/A Snow Snow
11:55 AM 11.7 °F 9.7 °F 92% 29.30 in 0.8 mi North - - N/A Snow Light Snow
12:55 PM 9.5 °F 7.5 °F 92% 29.31 in 0.2 mi North - - N/A Snow Snow
1:40 PM 10.4 °F 8.6 °F 92% 29.27 in 0.2 mi North - - N/A Snow Light Snow
1:55 PM 10.6 °F 10.6 °F 100% 29.27 in 0.2 mi North - - N/A Snow Snow
2:05 PM 12.2 °F 10.4 °F 92% 29.26 in 0.8 mi North - - N/A Snow Snow
2:55 PM 11.8 °F 9.7 °F 91% 29.23 in 1.0 mi North - - N/A Snow Light Snow
3:30 PM 14.0 °F 12.2 °F 93% 29.20 in 1.5 mi North - - N/A Snow Light Snow
3:55 PM 13.6 °F 12.9 °F 97% 29.19 in 0.8 mi North - - N/A Snow Light Snow
4:55 PM 13.5 °F 11.1 °F 90% 29.18 in 0.5 mi North - - N/A Snow Light Snow
5:50 PM 14.0 °F 14.0 °F 100% 29.18 in 0.8 mi North - - N/A Snow Light Snow
5:55 PM 14.4 °F 14.4 °F 100% 29.18 in 0.8 mi North - - N/A Snow Light Snow
6:10 PM 15.8 °F 14.0 °F 93% 29.18 in 1.0 mi North - - N/A Snow Light Snow
6:30 PM 15.8 °F 14.0 °F 93% 29.16 in 2.0 mi North - - N/A Snow Light Snow
6:50 PM 15.8 °F 14.0 °F 93% 29.16 in 0.8 mi North - - N/A Snow Light Snow
6:55 PM 15.8 °F 15.3 °F 98% 29.16 in 0.8 mi North - - N/A Snow Light Snow
7:45 PM 15.8 °F 14.0 °F 93% 29.17 in 1.0 mi North - - N/A Snow Light Snow
7:55 PM 16.0 °F 15.4 °F 98% 29.16 in 1.5 mi North - - N/A Snow Light Snow
8:35 PM 15.8 °F 15.8 °F 100% 29.16 in 2.5 mi North - - N/A Snow Light Snow
8:55 PM 16.5 °F 16.0 °F 98% 29.16 in 4.0 mi North - - N/A   Mostly Cloudy
9:10 PM 17.6 °F 15.8 °F 93% 29.17 in 1.8 mi North - - N/A   Mostly Cloudy
9:30 PM 15.8 °F 15.8 °F 100% 29.17 in 0.8 mi North - - N/A Snow Light Snow
9:50 PM 15.8 °F 14.0 °F 93% 29.17 in 1.0 mi North - - N/A Snow Light Snow
9:55 PM 15.6 °F 14.5 °F 95% 29.17 in 1.0 mi North - - N/A Snow Light Snow
10:55 PM 14.2 °F 12.7 °F 94% 29.17 in 1.0 mi North - - N/A Snow Light Snow
11:15 PM 14.0 °F 12.2 °F 93% 29.16 in 1.2 mi North - - N/A Snow Light Snow
11:55 PM 12.7 °F 11.5 °F 95% 29.16 in 1.0 mi North - - N/A Snow Light Snow